Tracking 28126 objects as of 1-Oct-2023
HD Live streaming from Space Station
objects crossing your sky now

BREEZE-M DEB (TANK)

Track BREEZE-M DEB (TANK) now!
10-day predictions


NORAD ID: 28188
Int'l Code: 2004-008B
Perigee: 307.9 km
Apogee: 13,835.8 km
Inclination: 49.5 °
Period: 258.5 minutes
Semi major axis: 13442 km
RCS: 7.345 m2 (large)
Launch date: March 15, 2004
Source: Commonwealth of Independent States (former USSR) (CIS)
Launch site: TYURATAM MISSILE AND SPACE COMPLEX (TTMTR)

Note: This is SATELLITE DEBRIS
Your satellite tracking list
Your tracking list is empty




NASA's NSSDC Master Catalog

Two Line Element Set (TLE):
1 28188U 04008B   23273.10268623  .00004778  00000-0  80078-3 0  9996
2 28188  49.4732 231.7090 5031639 176.6253 188.9635  5.57015467378386
Source of the keplerian elements: AFSPC